Погода в Кузино

Россия / Свердловская область     57°01′08″N   59°26′22″E
темп.,
°C
ветер,
м/с
пор.,
м/с
влажн.,
%
обл.,
%
осадки,
мм/ч
давл.,
гПа
погр.,
м
10 мая, пн
пн1023:00+11всв116765 0.0 101911
02:00+10вюв1271100 0.0 102012
05:00+9вюв117230 0.0 102110
08:00+15вюв365549 0.0 1022340
11:00+20вюв35374 0.0 10231414
14:00+22в45295 0.0 10232453
17:00+21в33265 0.0 10232632
20:00+16юв26440 0.0 1024116
11 мая, вт
вт1123:00+11юв22564 0.0 102611
02:00+9юв22615 0.0 102710
05:00+8ююв11585 0.0 102710
08:00+13ююв1242100 0.0 1027197
11:00+18ю1131100 0.0 1028733
14:00+21з1129100 0.0 10271215
17:00+22з22295 0.0 10271880
20:00+18зюз22485 0.0 102726
12 мая, ср
ср1223:00+13з116331 0.0 102810
02:00+11зсз1180100 0.0 102910
05:00+10с119412 0.0 103011
08:00+15ссз236610 0.0 1030421
11:00+19ссз23365 0.0 10291246
14:00+22ссз233215 0.0 10281855
17:00+22ссз33335 0.0 10282041
20:00+18сз22515 0.0 102821
13 мая, чт
чт1323:00+14ссз1166100 0.0 102911
02:00+12сз11745 0.0 102910
05:00+11сз017979 0.0 103010
08:00+17сз115613 0.0 1029230
11:00+22сз233824 0.0 10281312
14:00+24сз333266 0.0 10271875
17:00+25сз333273 0.0 10262083
20:00+21сз125036 0.0 102611
14 мая, пт
пт1423:00+15зсз11645 0.0 102711
02:00+14зюз11704 0.0 102711
05:00+13зюз11730 0.0 102710
08:00+19зюз235312 0.0 1027274
11:00+23з34395 0.0 10261286
14:00+26з35295 0.0 10242722
17:00+25з56288 0.0 10232715
20:00+21з264863 0.0 1023171